sat.trackr.live / text

‹ back to catalog

STARLINK-36771

NORAD 67928 · 2026-036AA

PAYLOAD ACTIVE UNKNOWN

§ Identity

Operator
Country
US
Launch date
2026-02-22
Launch site
AFETR
Launch vehicle
Mass (kg)
RCS (m²)

Purposes: comms

External: N2YO · Heavens-Above · Gunter

§ Orbital elements

Epoch: 2026-05-25T03:10:41.776608Z

Period
94.27 min
Inclination
43.0026°
Eccentricity
0.0001152
Mean motion
15.27584741 rev/d
Perigee alt
482.2 km
Apogee alt
483.8 km
Semi-major
6,861.2 km
B*
4.2819e-4
RAAN
173.4913°
Arg perigee
257.6926°
Mean anomaly
102.3797°
Rev number
1,541

§ Raw data

STARLINK-367711 67928U 26036AA  26145.13242797  .00011541  00000+0  42819-3 0  99902 67928  43.0026 173.4913 0001152 257.6926 102.3797 15.27584741 15417

JSON: /api/v1/satellites/67928 · /tle

For live sub-satellite position, see the globe view (requires WebGL).

§ Visibility from observer

Set your observer location to see the next 7 days of passes ≥ 10°. The values pass through the URL so the page stays shareable.

No JS? Fill the form by hand. The geolocation button needs JavaScript.